TimeEST,TemperatureF,Dew PointF,Humidity,Sea Level PressureIn,VisibilityMPH,Wind Direction,Wind SpeedMPH,Gust SpeedMPH,PrecipitationIn,Events,Conditions,WindDirDegrees,DateUTC
12:15 AM,27.1,26.4,97,30.29,10.0,Calm,Calm,-,N/A,,Clear,0,2013-12-12 05:15:00
12:35 AM,27.5,26.8,97,30.28,10.0,Calm,Calm,-,N/A,,Clear,0,2013-12-12 05:35:00
12:55 AM,27.1,26.1,96,30.28,10.0,Calm,Calm,-,N/A,,Clear,0,2013-12-12 05:55:00
1:15 AM,27.0,26.2,97,30.28,10.0,Calm,Calm,-,N/A,,Clear,0,2013-12-12 06:15:00
1:35 AM,26.6,25.9,97,30.28,10.0,Calm,Calm,-,N/A,,Clear,0,2013-12-12 06:35:00
1:55 AM,26.1,25.5,98,30.28,10.0,Calm,Calm,-,N/A,,Clear,0,2013-12-12 06:55:00
2:15 AM,26.4,25.5,96,30.28,10.0,Calm,Calm,-,N/A,,Clear,0,2013-12-12 07:15:00
2:35 AM,25.5,24.6,96,30.28,10.0,Calm,Calm,-,N/A,,Clear,0,2013-12-12 07:35:00
2:55 AM,25.3,24.6,97,30.29,10.0,Calm,Calm,-,N/A,,Clear,0,2013-12-12 07:55:00
3:15 AM,25.2,24.1,96,30.29,10.0,Calm,Calm,-,N/A,,Clear,0,2013-12-12 08:15:00
3:35 AM,24.3,23.5,97,30.29,10.0,Calm,Calm,-,N/A,,Clear,0,2013-12-12 08:35:00
3:55 AM,24.8,24.4,99,30.28,10.0,Calm,Calm,-,N/A,,Clear,0,2013-12-12 08:55:00
4:15 AM,24.8,23.9,96,30.28,10.0,Calm,Calm,-,N/A,,Clear,0,2013-12-12 09:15:00
4:35 AM,24.1,23.2,96,30.28,10.0,Calm,Calm,-,N/A,,Clear,0,2013-12-12 09:35:00
4:55 AM,24.1,23.0,96,30.28,10.0,Calm,Calm,-,N/A,,Clear,0,2013-12-12 09:55:00
5:15 AM,24.6,23.2,94,30.29,10.0,Calm,Calm,-,N/A,,Clear,0,2013-12-12 10:15:00
5:35 AM,23.9,23.0,96,30.29,10.0,Calm,Calm,-,N/A,,Clear,0,2013-12-12 10:35:00
5:55 AM,24.3,23.0,95,30.29,10.0,Calm,Calm,-,N/A,,Clear,0,2013-12-12 10:55:00
6:15 AM,24.3,21.4,89,30.30,10.0,North,3.5,-,N/A,,Clear,350,2013-12-12 11:15:00
6:35 AM,29.7,22.6,75,30.31,10.0,North,5.8,-,N/A,,Clear,350,2013-12-12 11:35:00
6:55 AM,30.9,21.7,69,30.32,10.0,North,6.9,-,N/A,,Clear,360,2013-12-12 11:55:00
7:15 AM,31.8,21.2,65,30.34,10.0,North,6.9,-,N/A,,Clear,350,2013-12-12 12:15:00
7:35 AM,32.0,20.8,63,30.35,10.0,North,5.8,-,N/A,,Clear,350,2013-12-12 12:35:00
7:55 AM,32.5,20.3,61,30.37,10.0,North,6.9,-,N/A,,Clear,350,2013-12-12 12:55:00
8:15 AM,33.8,20.1,57,30.38,10.0,NNW,5.8,-,N/A,,Clear,340,2013-12-12 13:15:00
8:35 AM,34.5,20.5,57,30.38,10.0,North,6.9,-,N/A,,Clear,350,2013-12-12 13:35:00
8:55 AM,35.6,21.0,55,30.39,10.0,NNW,5.8,-,N/A,,Clear,340,2013-12-12 13:55:00
9:15 AM,36.1,20.5,53,30.40,10.0,North,10.4,17.3,N/A,,Clear,350,2013-12-12 14:15:00
9:35 AM,36.9,20.3,51,30.41,10.0,North,8.1,-,N/A,,Clear,350,2013-12-12 14:35:00
9:55 AM,37.0,20.3,51,30.41,10.0,NNW,8.1,17.3,N/A,,Clear,330,2013-12-12 14:55:00
10:15 AM,37.6,20.3,50,30.42,10.0,North,8.1,17.3,N/A,,Clear,10,2013-12-12 15:15:00
10:35 AM,38.7,20.3,48,30.41,10.0,NNW,5.8,-,N/A,,Clear,330,2013-12-12 15:35:00
10:55 AM,39.2,19.9,46,30.41,10.0,North,8.1,-,N/A,,Clear,10,2013-12-12 15:55:00
11:15 AM,39.9,19.9,45,30.39,10.0,NNE,6.9,-,N/A,,Clear,20,2013-12-12 16:15:00
11:35 AM,40.1,19.0,43,30.39,10.0,North,5.8,-,N/A,,Clear,360,2013-12-12 16:35:00
11:55 AM,41.0,19.4,42,30.38,10.0,NNW,5.8,-,N/A,,Clear,340,2013-12-12 16:55:00
12:15 PM,40.8,19.0,42,30.37,10.0,West,3.5,-,N/A,,Clear,260,2013-12-12 17:15:00
12:35 PM,41.4,18.1,39,30.36,10.0,WNW,5.8,-,N/A,,Clear,300,2013-12-12 17:35:00
12:55 PM,41.4,17.1,38,30.36,10.0,WNW,4.6,-,N/A,,Clear,300,2013-12-12 17:55:00
1:15 PM,42.3,17.4,37,30.35,10.0,Calm,Calm,-,N/A,,Clear,0,2013-12-12 18:15:00
1:35 PM,42.3,16.7,36,30.35,10.0,WSW,4.6,-,N/A,,Clear,250,2013-12-12 18:35:00
1:55 PM,43.3,17.1,35,30.34,10.0,North,5.8,-,N/A,,Clear,360,2013-12-12 18:55:00
2:15 PM,43.3,17.2,35,30.34,10.0,North,4.6,-,N/A,,Clear,360,2013-12-12 19:15:00
2:35 PM,43.5,14.7,31,30.33,10.0,NW,3.5,-,N/A,,Clear,310,2013-12-12 19:35:00
2:55 PM,43.7,13.6,30,30.33,10.0,NNW,4.6,-,N/A,,Clear,330,2013-12-12 19:55:00
3:15 PM,43.7,12.7,29,30.33,10.0,NNW,5.8,-,N/A,,Clear,330,2013-12-12 20:15:00
3:55 PM,43.0,10.6,27,30.34,10.0,NW,5.8,-,N/A,,Clear,310,2013-12-12 20:55:00
4:15 PM,42.8,11.3,28,30.34,10.0,NW,4.6,-,N/A,,Clear,310,2013-12-12 21:15:00
4:35 PM,41.7,12.4,30,30.35,10.0,NW,3.5,-,N/A,,Clear,320,2013-12-12 21:35:00
4:55 PM,40.5,12.6,32,30.36,10.0,Calm,Calm,-,N/A,,Clear,0,2013-12-12 21:55:00
5:15 PM,35.8,17.4,47,30.36,10.0,Calm,Calm,-,N/A,,Clear,0,2013-12-12 22:15:00
5:35 PM,35.2,16.5,47,30.36,10.0,Calm,Calm,-,N/A,,Clear,0,2013-12-12 22:35:00
5:55 PM,32.7,21.2,63,30.37,10.0,Calm,Calm,-,N/A,,Clear,0,2013-12-12 22:55:00
6:15 PM,30.0,19.9,66,30.36,10.0,Calm,Calm,-,N/A,,Clear,0,2013-12-12 23:15:00
6:35 PM,29.7,20.7,69,30.36,10.0,Calm,Calm,-,N/A,,Clear,0,2013-12-12 23:35:00
6:55 PM,27.9,20.3,73,30.36,10.0,Calm,Calm,-,N/A,,Clear,0,2013-12-12 23:55:00
7:15 PM,27.9,20.8,75,30.37,10.0,Calm,Calm,-,N/A,,Clear,0,2013-12-13 00:15:00
7:35 PM,26.4,21.0,80,30.37,10.0,Calm,Calm,-,N/A,,Clear,0,2013-12-13 00:35:00
7:55 PM,26.6,20.3,77,30.37,10.0,Calm,Calm,-,N/A,,Clear,0,2013-12-13 00:55:00
8:15 PM,26.4,20.8,79,30.37,10.0,Calm,Calm,-,N/A,,Clear,0,2013-12-13 01:15:00
8:35 PM,24.4,20.5,85,30.37,10.0,Calm,Calm,-,N/A,,Clear,0,2013-12-13 01:35:00
8:55 PM,25.9,21.0,82,30.37,10.0,Calm,Calm,-,N/A,,Clear,0,2013-12-13 01:55:00
9:15 PM,26.1,20.3,79,30.37,10.0,Calm,Calm,-,N/A,,Clear,0,2013-12-13 02:15:00
9:35 PM,25.5,20.1,80,30.37,10.0,Calm,Calm,-,N/A,,Clear,0,2013-12-13 02:35:00
9:55 PM,23.9,19.8,84,30.37,10.0,Calm,Calm,-,N/A,,Clear,0,2013-12-13 02:55:00
10:15 PM,23.4,19.8,86,30.36,10.0,Calm,Calm,-,N/A,,Clear,0,2013-12-13 03:15:00
10:35 PM,23.9,20.3,86,30.36,10.0,Calm,Calm,-,N/A,,Clear,0,2013-12-13 03:35:00
10:55 PM,23.7,20.8,89,30.35,10.0,Calm,Calm,-,N/A,,Clear,0,2013-12-13 03:55:00
11:15 PM,23.5,20.8,89,30.35,10.0,Calm,Calm,-,N/A,,Clear,0,2013-12-13 04:15:00
11:35 PM,23.0,19.6,87,30.35,10.0,Calm,Calm,-,N/A,,Clear,0,2013-12-13 04:35:00
11:55 PM,22.5,20.8,93,30.35,10.0,Calm,Calm,-,N/A,,Clear,0,2013-12-13 04:55:00